Ukiah, CA

5:35 PM PDT on June 27, 2017 (GMT -0700)
Ukiah Municipal

Weather History for KUKI - September, 2012

Change the Weather History Date:

Tuesday, September 18, 2012

  Actual Average Record
Temperature  
Mean Temperature 68 °F 68 °F  
Max Temperature 90 °F 87 °F 104 °F (1913)
Min Temperature 46 °F 49 °F 34 °F (1911)
Degree Days  
Heating Degree Days 0 1  
Month to date heating degree days 8  
Since 1 July heating degree days 11  
Cooling Degree Days 2 4  
Month to date cooling degree days 93  
Year to date cooling degree days 776  
Growing Degree Days 18 (Base 50)    
Moisture  
Dew Point 45 °F    
Average Humidity 54    
Maximum Humidity 86    
Minimum Humidity 21    
Precipitation  
Precipitation 0.00 in 0.02 in 1.91 in (1959)
Month to date precipitation 0.00 0.25  
Year to date precipitation 18.92 23.77  
Since 1 July precipitation T  
Snow  
Snow 0.00 in - - ()
Month to date snowfall 0.0  
Since 1 July snowfall 0.0  
Since 1 September snowfall 0.0  
Snow Depth -    
Sea Level Pressure  
Sea Level Pressure 30.03 in    
Wind  
Wind Speed 2 mph (NNE)    
Max Wind Speed 9 mph    
Max Gust Speed 13 mph    
Visibility 10 miles    
Events      
T = Trace of Precipitation, MM = Missing Value Source: NWS Daily Summary

Daily Weather History Graph

Daily Weather History Graph

Search for Another Location

Airport or City:

Trip Planner

Search our weather history database for the weather conditions in past years. The results will help you decide how hot, cold, wet, or windy it might be!

Date:

Astronomy

Sep. 18, 2012 Rise Set
Actual Time 6:57 AM PDT 7:15 PM PDT
Civil Twilight 6:30 AM PDT 7:42 PM PDT
Nautical Twilight 5:59 AM PDT 8:13 PM PDT
Astronomical Twilight 5:27 AM PDT 8:45 PM PDT
Moon 10:01 AM PDT (9/18) 8:44 PM PDT (9/18)
Length of Visible Light 13h 11m
Length of Day
12h 17m
Waxing Crescent, 10% of the Moon is Illuminated
Sep 18
Waxing Crescent
Sep 22
First Quarter
Sep 29
Full
Oct 8
Last Quarter
Oct 15
New

Hourly Weather History & Observations

Time (PDT) Temp. Windchill Dew Point Humidity Pressure Visibility Wind Dir Wind Speed Gust Speed Precip Events Conditions
12:56 AM 55.0 °F - 46.0 °F 72% 30.02 in 10.0 mi South 4.6 mph - N/A   Clear
1:56 AM 53.1 °F - 46.0 °F 77% 30.03 in 10.0 mi South 3.5 mph - N/A   Clear
2:56 AM 51.1 °F - 46.0 °F 83% 30.03 in 10.0 mi Calm Calm - N/A   Clear
3:56 AM 50.0 °F - 45.0 °F 83% 30.04 in 10.0 mi Calm Calm - N/A   Clear
4:56 AM 48.0 °F - 43.0 °F 83% 30.04 in 10.0 mi Calm Calm - N/A   Clear
5:56 AM 46.9 °F - 43.0 °F 86% 30.05 in 10.0 mi Calm Calm - N/A   Clear
6:56 AM 46.9 °F - 43.0 °F 86% 30.06 in 10.0 mi Calm Calm - N/A   Clear
7:56 AM 46.0 °F 44.8 °F 43.0 °F 89% 30.08 in 10.0 mi ESE 3.5 mph - N/A   Clear
8:56 AM 52.0 °F - 45.0 °F 77% 30.09 in 10.0 mi Calm Calm - N/A   Clear
9:56 AM 59.0 °F - 46.9 °F 64% 30.08 in 10.0 mi Calm Calm - N/A   Clear
10:56 AM 64.9 °F - 48.0 °F 54% 30.07 in 10.0 mi Calm Calm - N/A   Clear
11:56 AM 73.4 °F - 46.4 °F 38% 30.07 in 10.0 mi Calm Calm - N/A   Clear
12:56 PM 80.1 °F - 44.1 °F 28% 30.03 in 10.0 mi Calm Calm - N/A   Clear
1:56 PM 82.9 °F - 46.0 °F 27% 30.01 in 10.0 mi Variable 3.5 mph - N/A   Clear
2:56 PM 87.1 °F - 44.1 °F 22% 29.99 in 10.0 mi NE 4.6 mph - N/A   Clear
3:56 PM 89.1 °F - 45.0 °F 22% 29.97 in 10.0 mi North 9.2 mph - N/A   Clear
4:56 PM 86.0 °F - 46.9 °F 26% 29.97 in 10.0 mi North 6.9 mph - N/A   Clear
5:56 PM 81.0 °F - 46.9 °F 30% 29.97 in 10.0 mi NNE 9.2 mph - N/A   Clear
6:56 PM 73.9 °F - 42.1 °F 32% 29.99 in 10.0 mi North 5.8 mph - N/A   Clear
7:56 PM 69.1 °F - 43.0 °F 39% 30.01 in 10.0 mi NNW 4.6 mph - N/A   Clear
8:56 PM 64.9 °F - 44.1 °F 47% 30.03 in 10.0 mi Calm Calm - N/A   Clear
9:56 PM 57.9 °F - 45.0 °F 62% 30.05 in 10.0 mi Calm Calm - N/A   Clear
10:56 PM 57.9 °F - 44.1 °F 60% 30.06 in 10.0 mi Calm Calm - N/A   Clear
11:56 PM 55.9 °F - 44.1 °F 64% 30.06 in 10.0 mi Calm Calm - N/A   Clear